FW0683 Livingston NJ US current weather conditions

sailwx.info

Wind from 352

Air temperature 14.4° C
Dewpoint 12.8° C

Last reported at 2019-Oct-14 13:02 UTC.
Time now 2019-Oct-14 13:42 UTC

Location: N 40°47' W 074°21'.
View on Google Maps.

See reports from other nearby stations

  
Tides and Currents Weather Stations Pressure Air Temp Water Temp Dewpoint Dewpoint Depression Visibility Wind Speed Wind Dir Waves Ship Positions
date/time (UTC)wind fromknots sea level pressurealtimeterstation pressurevisibilityair tempwater tempwave heightnotes
2019-Oct-14 13:02 352 14.4
2019-Oct-14 12:47 349 13.9
2019-Oct-14 12:16 208 13.3
2019-Oct-14 12:01 188 0 gusting 1 13.3
2019-Oct-14 11:46 163 13.3
2019-Oct-14 11:31 037 12.8
2019-Oct-14 11:17 037 12.8
2019-Oct-14 11:02 037 12.8
2019-Oct-14 10:47 037 12.8
2019-Oct-14 10:32 037 12.8
2019-Oct-14 10:17 037 12.2
2019-Oct-14 10:01 037 12.2
2019-Oct-14 09:47 037 12.2
2019-Oct-14 09:32 037 12.2
2019-Oct-14 09:16 037 12.8
2019-Oct-14 09:02 037 13.3
2019-Oct-14 08:46 037 13.9
2019-Oct-14 08:31 037 14.4
2019-Oct-14 08:15 314 14.4
2019-Oct-14 08:02 314 14.4
2019-Oct-14 07:46 092 14.4
2019-Oct-14 07:31 092 14.4
2019-Oct-14 07:16 091 14.4
2019-Oct-14 07:01 091 14.4
2019-Oct-14 06:46 092 14.4
2019-Oct-14 06:31 092 14.4
2019-Oct-14 06:15 091 13.9
2019-Oct-14 06:01 091 13.9
2019-Oct-14 05:45 091 13.9
2019-Oct-14 05:31 091 13.9
2019-Oct-14 05:16 092 14.4
2019-Oct-14 05:00 091 14.4
2019-Oct-14 04:45 091 14.4
2019-Oct-14 04:31 091 14.4
2019-Oct-14 04:15 091 14.4
2019-Oct-14 04:00 091 14.4
2019-Oct-14 03:45 105 14.4
2019-Oct-14 03:31 104 14.4
2019-Oct-14 03:15 105 14.4
2019-Oct-14 03:00 105 14.4
2019-Oct-14 02:46 091 14.4
2019-Oct-14 02:30 115 14.4
2019-Oct-14 02:15 115 14.4
2019-Oct-14 02:00 115 14.4
2019-Oct-14 01:45 115 13.9
2019-Oct-14 01:15 116 13.9
2019-Oct-14 01:00 116 13.9
2019-Oct-14 00:45 116 13.9
2019-Oct-14 00:30 110 13.9
2019-Oct-14 00:15 107 14.4
2019-Oct-14 00:00 155 14.4
2019-Oct-13 23:45 168 0 gusting 3 15.0
2019-Oct-13 23:30 147 0 gusting 3 15.0
2019-Oct-13 23:15 160 0 gusting 4 15.6
2019-Oct-13 22:45 153 16.7
2019-Oct-13 22:30 132 16.7
2019-Oct-13 22:15 153 17.2
2019-Oct-13 22:00 134 17.2
2019-Oct-13 21:45 171 17.8
2019-Oct-13 21:17 127 0 gusting 5 18.3
2019-Oct-13 21:02 168 0 gusting 3 18.9
2019-Oct-13 20:47 160 18.9
2019-Oct-13 20:32 173 0 gusting 4 18.9
2019-Oct-13 20:17 133 18.9
2019-Oct-13 20:01 323 0 gusting 2 19.4
2019-Oct-13 19:46 311 1 gusting 3 19.4
2019-Oct-13 19:31 004 20.0
2019-Oct-13 19:17 311 19.4
2019-Oct-13 19:01 078 0 gusting 2 18.9
2019-Oct-13 18:46 057 18.9
2019-Oct-13 18:31 349 0 gusting 3 18.9
2019-Oct-13 18:16 153 18.3
2019-Oct-13 17:46 300 1 gusting 3 17.8
2019-Oct-13 17:31 072 17.8
2019-Oct-13 17:16 001 17.2
2019-Oct-13 17:01 041 17.2
2019-Oct-13 16:46 046 0 gusting 2 16.7
2019-Oct-13 16:30 051 0 gusting 4 16.7
2019-Oct-13 16:16 049 0 gusting 3 16.1
2019-Oct-13 16:00 059 1 gusting 4 16.1
2019-Oct-13 15:46 041 2 gusting 3 15.0
2019-Oct-13 15:30 053 0 gusting 4 15.6
2019-Oct-13 15:15 053 0 gusting 3 15.0
2019-Oct-13 15:00 064 2 gusting 5 14.4
2019-Oct-13 14:45 043 0 gusting 3 14.4
2019-Oct-13 14:30 052 0 gusting 3 14.4
2019-Oct-13 14:15 049 0 gusting 3 13.3
2019-Oct-13 14:00 071 12.8
2019-Oct-13 13:46 058 12.2
2019-Oct-13 13:31 063 11.7
2019-Oct-13 13:16 063 11.1
2019-Oct-13 13:01 049 11.1
2019-Oct-13 12:46 056 10.6
2019-Oct-13 12:31 059 10.0
2019-Oct-13 12:16 057 9.4
2019-Oct-13 12:02 032 8.3
2019-Oct-13 11:46 032 8.3
2019-Oct-13 11:31 033 8.9
2019-Oct-13 11:16 034 8.3
2019-Oct-13 11:01 034 8.3
2019-Oct-13 10:46 034 8.3
2019-Oct-13 10:30 326 8.3
2019-Oct-13 10:15 326 8.3
2019-Oct-13 10:01 326 8.3
2019-Oct-13 09:45 326 8.9
2019-Oct-13 09:30 326 8.9
2019-Oct-13 09:15 326 9.4
2019-Oct-13 09:00 323 9.4
2019-Oct-13 08:46 343 9.4
2019-Oct-13 08:30 297 9.4
2019-Oct-13 08:15 326 10.0
2019-Oct-13 08:00 335 10.0
2019-Oct-13 07:45 342 9.4
2019-Oct-13 07:30 342 10.0
2019-Oct-13 07:15 342 10.6
2019-Oct-13 07:00 345 11.7
2019-Oct-13 06:45 314 0 gusting 3 11.7
2019-Oct-13 06:30 330 0 gusting 3 11.7
2019-Oct-13 06:15 288 12.2
2019-Oct-13 06:02 333 0 gusting 4 12.2
2019-Oct-13 05:47 316 12.2
2019-Oct-13 05:31 326 11.7
2019-Oct-13 05:16 326 12.8
2019-Oct-13 05:02 319 12.8
2019-Oct-13 04:46 321 12.8
2019-Oct-13 04:33 314 12.8
2019-Oct-13 04:16 312 12.8
2019-Oct-13 04:02 337 12.8
2019-Oct-13 03:46 300 12.8
2019-Oct-13 03:32 255 12.8
2019-Oct-13 03:17 307 13.3
2019-Oct-13 03:02 296 13.3
2019-Oct-13 02:47 354 12.8
2019-Oct-13 02:16 002 12.8
2019-Oct-13 02:02 090 13.3
2019-Oct-13 01:32 090 13.9
2019-Oct-13 01:16 090 14.4
2019-Oct-13 01:01 090 14.4
2019-Oct-13 00:46 090 15.0
2019-Oct-13 00:31 090 15.6
2019-Oct-13 00:16 082 16.1
2019-Oct-13 00:02 283 16.1
2019-Oct-12 23:46 282 16.7
2019-Oct-12 23:31 292 16.7
2019-Oct-12 23:16 305 17.2
2019-Oct-12 23:01 323 17.8
2019-Oct-12 22:46 039 0 gusting 6 17.8
2019-Oct-12 22:31 322 18.3
2019-Oct-12 22:15 314 18.3
2019-Oct-12 21:47 326 0 gusting 4 18.9
2019-Oct-12 21:31 304 0 gusting 4 19.4
2019-Oct-12 21:16 293 0 gusting 3 20.0
2019-Oct-12 21:01 326 0 gusting 6 20.6
2019-Oct-12 20:45 360 21.1
2019-Oct-12 20:32 322 0 gusting 3 21.1
2019-Oct-12 20:16 342 21.1
2019-Oct-12 20:01 035 0 gusting 3 21.1
2019-Oct-12 19:46 281 1 gusting 3 21.1
2019-Oct-12 19:31 354 0 gusting 3 21.1
2019-Oct-12 19:16 234 21.7
2019-Oct-12 19:01 338 21.1
2019-Oct-12 18:46 223 21.1
2019-Oct-12 18:31 197 21.1
2019-Oct-12 18:00 032 0 gusting 2 20.0
2019-Oct-12 17:45 056 19.4
2019-Oct-12 17:30 087 18.9
2019-Oct-12 17:15 041 1 gusting 5 18.9
2019-Oct-12 17:00 342 0 gusting 3 18.3
2019-Oct-12 16:45 325 0 gusting 2 18.3
2019-Oct-12 16:30 240 0 gusting 2 17.2
2019-Oct-12 16:15 093 0 gusting 3 17.2
2019-Oct-12 16:00 059 1 gusting 4 16.7
2019-Oct-12 15:48 044 16.7
2019-Oct-12 15:32 060 0 gusting 3 16.1
2019-Oct-12 15:17 035 15.0
2019-Oct-12 15:01 056 14.4
2019-Oct-12 14:47 046 0 gusting 5 14.4
2019-Oct-12 14:31 355 0 gusting 4 15.0
2019-Oct-12 14:16 041 2 gusting 5 13.9
2019-Oct-12 14:02 107 0 gusting 5 13.3
2019-Oct-12 13:47 077 1 gusting 4 13.9
2019-Oct-12 13:31 053 0 gusting 3 13.9
2019-Oct-12 13:16 055 0 gusting 3 13.9
2019-Oct-12 13:01 047 1 gusting 4 13.3